Regional Weather Roundup
Issued by NWS

Home | Current Version | Previous Version | Text Only | Print | Product List | Glossary Off
Versions: 1 2 3 4 5 6 7 8 9 10 11 12 13 14 15 16 17 18 19 20 21 22 23 24 25 26 27 28 29 30 31 32 33 34 35 36 37 38 39 40 41 42 43 44 45 46 47 48 49 50

000
ASUS45 KTFX 310910
RWRMT
MONTANA REGIONAL WEATHER ROUNDUP
NATIONAL WEATHER SERVICE GREAT FALLS MT
300 AM MDT FRI JUL 31 2015

NOTE: "FAIR" INDICATES FEW OR NO CLOUDS BELOW 12000 FEET WITH NO
SIGNIFICANT WEATHER AND/OR OBSTRUCTIONS TO VISIBILITY.

MTZ001>007-043-311000-
WEST OF THE DIVIDE

CITY           SKY/WX    TMP DP  RH WIND       PRES   REMARKS
KALISPELL      SUNNY     49  39  68 CALM      30.16S
MISSOULA       CLEAR     55  42  61 CALM      30.22R
BUTTE          CLEAR     50  40  68 S6        30.35S
MULLAN PASS    CLEAR     67  27  22 S3        30.36S
DEER LODGE       N/A     52  43  71 CALM      30.34S
EUREKA           N/A     54  37  54 CALM      30.16S
HAMILTON         N/A     63  41  45 S10       30.23S
LIBBY            N/A     52  37  58 CALM      30.17S
PLAINS           N/A     54  37  52 CALM      30.17R
RONAN            N/A     52  44  74 CALM      30.20S
$$

MTZ008-052>055-311000-
SOUTHWEST MONTANA

CITY           SKY/WX    TMP DP  RH WIND       PRES   REMARKS
BOZEMAN        CLEAR     54  45  71 S8        30.27S
DILLON         CLEAR     57  40  52 S12       30.31S
THREE FORKS      N/A     52  31  44 CALM      30.23R
TWIN BRIDGES     N/A     54  43  66 E2        30.26S
$$

MTZ009-010-012-014-046-048-049-054-311000-
EAST SLOPES AND CENTRAL MONTANA

CITY           SKY/WX    TMP DP  RH WIND       PRES   REMARKS
CUT BANK       CLEAR     50  39  66 W6        30.19F
GREAT FALLS    CLEAR     59  42  53 SW10      30.18S
MALMSTROM AFB  CLEAR     60  43  53 S3        30.18S
HELENA         CLEAR     60  41  49 CALM      30.24R
CONRAD           N/A     50  47  89 N3        30.18F
$$

MTZ011-013-016-021-045-047-050-051-311000-
NORTH CENTRAL MONTANA

CITY           SKY/WX    TMP DP  RH WIND       PRES   REMARKS
HAVRE          CLEAR     57  50  77 E3        30.13F
LEWISTOWN      CLEAR     57  42  57 SE6       30.24F
CHINOOK          N/A     61  52  72 E7        30.14F
$$

MTZ017>020-022>027-061-062-311000-
NORTHEAST MONTANA

CITY           SKY/WX    TMP DP  RH WIND       PRES   REMARKS
GLASGOW        CLEAR     61  50  67 E12       30.16S
JORDAN           N/A     54  45  71 W3        30.19R
SIDNEY         CLEAR     55  48  76 CALM      30.17R
WOLF POINT     CLEAR     54  48  80 CALM      30.17S
MALTA            N/A     57  50  78 CALM      30.12S
PLENTYWOOD       N/A     59  48  67 CALM      30.16S
POPLAR           N/A     57  52  82 CALM      30.17S
SCOBEY           N/A     54  46  74 MISG      30.15F
$$

MTZ028>42-056>058-311000-
SOUTHCENTRAL AND SOUTHEAST MONTANA

CITY           SKY/WX    TMP DP  RH WIND       PRES   REMARKS
BAKER          PTCLDY    55  47  74 CALM      30.23S
BILLINGS       CLEAR     66  40  38 N6        30.23F
LIVINGSTON     CLEAR     51  40  65 CALM      30.29S
MILES CITY     CLEAR     63  47  55 S7        30.20S
EKALAKA          N/A     66  41  40 SE6       30.22R
FORSYTH          N/A     64  45  48 CALM      30.20S
LAUREL           N/A     62  37  39 N1        30.20S
ROUNDUP          N/A     62  37  39 CALM      30.14S
$$

REGIONAL REPORTS...DAKOTAS

CITY           SKY/WX    TMP DP  RH WIND       PRES   REMARKS
WILLISTON      CLEAR     55  49  80 SW7       30.16F
MINOT          CLEAR     56  47  71 SW7       30.13R
DICKINSON      CLEAR     50  45  83 S9        30.19S
BEACH          FAIR      52  48  87 S5        30.21S
BISMARCK       CLEAR     55  51  86 CALM      30.18R
GRAND FORKS    CLEAR     58  52  80 W7        30.02S
FARGO          CLEAR     58  52  80 W8        30.06R
BUFFALO SD       N/A     65  46  50 CALM      30.17S
RAPID CITY     CLEAR     59  49  69 CALM      30.23S
$$

REGIONAL REPORTS...WYOMING/IDAHO/WASHINGTON

CITY           SKY/WX    TMP DP  RH WIND       PRES   REMARKS
GILLETTE       CLEAR     53  41  63 CALM      30.28F
SHERIDAN       CLEAR     52  44  74 CALM      30.25F
BUFFALO WY     CLEAR     63  37  38 W9        30.32F
CODY           CLEAR     64  36  34 W6        30.31F
YELLOWSTONE LA   N/A     40  34  79 CALM      30.54S
IDAHO FALLS    CLEAR     48  43  82 VRB3      30.29R
SALMON         CLEAR     55  45  67 CALM      30.26S
BOISE          PTCLDY    70  37  29 E7        30.11F
SPOKANE        PTCLDY    75  32  20 SE8       30.09F
$$

REGIONAL REPORTS...ALBERTA

CITY           SKY/WX    TMP DP  RH WIND       PRES   REMARKS
EDMONTON       CLOUDY    61  50  67 CALM      30.14R
CALGARY        CLEAR     59  41  51 E13       30.21S
LETHBRIDGE     CLEAR     52  46  82 SW12      30.14S
MEDICINE HAT   CLEAR     59  45  58 E7        30.14S
WATERTON GATE    N/A     46  39  76 NE1         N/A
MILK RIVER       N/A     54  43  66 NW5         N/A
$$

REGIONAL REPORTS...SASKATCHEWAN

CITY           SKY/WX    TMP DP  RH WIND       PRES   REMARKS
SWIFT CURRENT  CLEAR     59  48  67 E3        30.19R
REGINA         CLEAR     50  50 100 W7        30.15R
SASKATOON      PTCLDY    48  46  93 W8        30.15R
CYPRESS HILLS    N/A     59  41  51 SE5         N/A
VAL MARIE        N/A     50  46  87 E6          N/A
ROCKGLEN         N/A     55  50  82 SW9         N/A
$$


USA.gov is the U.S. government's official web portal to all federal, state and local government web resources and services.